Location: La Oliva
(42.2466°N, 2.9955°E)
Time: 10:25:04
(UTC+00:00)

Meteor 2-15 Rocket - Pass Details

Date: 22 April 2021
Orbit: 939 x 956 km, 82.5° (Epoch: 10 May)

Event Time Altitude Azimuth Distance (km) Brightness Sun altitude
Exits shadow 21:43:55 73° 216° (SW) 984 4.3 -28.4°
Maximum altitude 21:44:30 82° 278° (W) 955 4.4 -28.5°
Drops below altitude 10° 21:50:36 10° 7° (N) 2,662 7.4 -29.1°
Sets 21:53:06 0° 8° (N) 3,611 8.2 -29.4°
